Location: Ambrosina
(19.9365°S, 43.9833°W)
Time: 02:05:40
(UTC+00:00)

Meteor 2-16 Rocket - Pass Details

Date: 11 May 2021
Orbit: 941 x 957 km, 82.6° (Epoch: 20 June)

Event Time Altitude Azimuth Distance (km) Brightness Sun altitude
Rises 22:03:05 0° 2° (N) 3,599 7.6 -22.2°
Reaches altitude 10° 22:05:34 10° 5° (N) 2,658 6.9 -22.8°
Maximum altitude 22:11:36 69° 87° (E) 1,010 4.3 -24.1°
Enters shadow 22:14:18 35° 160° (SSE) 1,496 5.2 -24.8°
